{"data":{"norad_id":81371,"epoch":"2026-05-23T01:11:07.013472Z","epoch_age_seconds":233764,"freshness":"STALE","line1":"1 81371U          26143.04938673  .00002155  00000+0  34412-3 0  9995","line2":"2 81371  98.8186 257.6053 0067945 220.6992 138.9124 14.71576353665558","mean_motion":14.71576353,"eccentricity":0.0067945,"inclination_deg":98.8186,"raan_deg":257.6053,"arg_perigee_deg":220.6992,"mean_anomaly_deg":138.9124,"bstar":0.00034412,"rev_number":66555,"period_min":97.854249768581,"perigee_km":608.24653323001,"apogee_km":703.83396788785,"semimajor_km":7034.1772505589,"source":"CELESTRAK","updated_at":"2026-05-25T13:38:09.450589Z"}}